Other Public Products
Issued by NWS Grand Forks, ND

Home | Current Version | Previous Version | Graphics & Text | Print | Product List | Glossary On
Versions: 1 2 3 4 5 6 7 8 9 10 11 12 13 14 15 16 17 18 19 20 21 22 23 24 25 26 27 28 29 30 31 32 33 34 35 36 37 38 39 40 41 42 43 44 45 46 47 48 49 50
593
FPUS83 KFGF 291931
OPUFGF
PRAIRIE TO PINES WEATHER ROUNDUP
NATIONAL WEATHER SERVICE EASTERN NORTH DAKOTA/GRAND FORKS ND
200 PM CDT SAT APR 29 2017

 **SATELLITE DATA USED TO AUGMENT SKY COVER AT AUTOMATED STATIONS**
 *****  WEATHER ACROSS EASTERN NORTH DAKOTA  *****

CITY           SKY/WX    TMP DP  RH WIND       PRES   REMARKS
GRAND FORKS    FAIR      57  24  28 SW3       30.30F
GRAND FORKS AF FAIR      56  23  27 SW8       30.30F
GRAND CITY NWS NOT AVBL
BUXTON           N/A     60  25  26 SE2         N/A
DEVILS LAKE    FAIR      57  16  20 S8        30.27F
FARGO          FAIR      57  18  21 W7        30.30F
WAHPETON ARPT  FAIR      54  19  26 CALM      30.32R
$$

 *****  WEATHER ACROSS CENTRAL AND WESTERN NORTH DAKOTA  *****

CITY           SKY/WX    TMP DP  RH WIND       PRES   REMARKS
JAMESTOWN      FAIR      57  17  21 VRB5      30.27F
BISMARCK       FAIR      60  16  18 CALM      30.26F
MINOT          PTSUNNY   61  25  25 S10G22    30.20F
MINOT AFB      FAIR      61  26  27 SW12      30.19F
GARRISON         N/A     60  21  22 VRB7      30.21F
WILLISTON      FAIR      63  33  32 MISG      30.21F
DICKINSON      PTSUNNY   57  18  21 SW9       30.21F
HETTINGER      FAIR      55  20  25 CALM      30.26F
$$

 *****  OTHER OBSERVATIONS NORTHEAST NORTH DAKOTA  *****

CITY           SKY/WX    TMP DP  RH WIND       PRES   REMARKS
WALHALLA       NOT AVBL
LANGDON        FAIR      61  19  20 SW9       30.25F
CAVALIER       FAIR      55  27  33 S12       30.27F
GRAFTON        FAIR      57  25  28 S9G15     30.31F
CANDO          NOT AVBL
FORT TOTTEN      N/A     59  11  15 W6        29.95S
ROLLA          FAIR      59  21  23 SW12G18   30.22F
RUGBY          NOT AVBL
 ***** THE ABOVE OBSERVATIONS ARE NON NWS ARE NOT QUALITY
        CONTROLLED AND MAY MIS-REPORT RAIN FOR SNOW...
$$

 *****  OTHER OBSERVATIONS SOUTHEAST NORTH DAKOTA *****

CITY           SKY/WX    TMP DP  RH WIND       PRES   REMARKS
COOPERSTOWN    FAIR      55  21  26 VRB3      30.29S
VALLEY CITY    FAIR      55  18  22 VRB5      30.30S
OAKES          NOT AVBL
GWINNER        CLEAR     55  18  22 MISG      30.30S
SHEYENNE NWR     N/A     57  20  23 SE5       29.95S
BUFFALO          N/A     43  14  30 CALM        N/A
WYNDMERE         N/A     55  21  26 NE3         N/A
 ***** THE ABOVE OBSERVATIONS ARE NON NWS ARE NOT QUALITY
       CONTROLLED AND MAY MIS-REPORT RAIN FOR SNOW...
$$

  *****  WEATHER ACROSS NORTHERN MINNESOTA  *****

CITY           SKY/WX    TMP DP  RH WIND       PRES   REMARKS
FLAG ISLAND    FAIR      46  16  29 SE7       30.31F
WARROAD        FAIR      48  28  46 NE10      30.32F
ROSEAU         FAIR      55  21  26 CALM      30.30F
HALLOCK        FAIR      57  18  21 SE5       30.29F
THF RVR FALLS  FAIR      53  14  21 NE6       30.31F
HALSTAD          N/A     56  25  30 N6          N/A
FOSSTON        FAIR      55  23  28 S5        30.31S
BAUDETTE       FAIR      55  13  18 N3        30.31F
WASKISH        FAIR      52  28  40 W9        30.32F
CROOKSTON      FAIR      55  19  24 CALM      30.31F
$$
  *****  WEATHER ACROSS CENTRAL AND WEST MINNESOTA  *****

CITY           SKY/WX    TMP DP  RH WIND       PRES   REMARKS
BEMIDJI        FAIR      54  20  27 S8        30.29F
PARK RAPIDS    FAIR      55  19  24 VRB5      30.29F
WADENA         FAIR      52  27  37 N7        30.30S
DETROIT LAKES  FAIR      52  23  32 CALM      30.31S
MOORHEAD       FAIR      55  21  26 CALM      30.31S
FERGUS FALLS   FAIR      54  27  35 CALM      30.30R
ELBOW LAKE     FAIR      53  24  32 NE8       30.31R
MORRIS MN      FAIR      55  23  28 NE10G16   30.31R
STAPLES        FAIR      54  18  24 NE8       30.30S
WHEATON        FAIR      54  19  26 N6        30.33R
$$
  *****  WEATHER ELSEWHERE ACROSS MINNESOTA  *****

CITY           SKY/WX    TMP DP  RH WIND       PRES   REMARKS
DULUTH         FAIR      46  20  35 SE13      30.33R
INTRNTL FALLS  FAIR      52  17  25 E5        30.32S
ELY            FAIR      48   7  18 E6        30.33S
CLOQUET        FAIR      50  16  25 E9        30.31F
BRAINERD       FAIR      53  21  28 NE8       30.31F
HIBBING        FAIR      50  16  25 VRB3      30.31S
ALEXANDRIA     FAIR      53  23  31 N9        30.30F
SAINT CLOUD    FAIR      52  23  32 NE10      30.29F
MINNEAPOLIS    CLOUDY    53  23  31 NE16      30.27F
$$

  *****  WEATHER ACROSS SOUTH DAKOTA  *****

CITY           SKY/WX    TMP DP  RH WIND       PRES   REMARKS
SIOUX FALLS    PTSUNNY   51  28  41 E18G25    30.24R
BROOKINGS      FAIR      50  20  30 NE13      30.27R
WATERTOWN      FAIR      51  22  31 NE9       30.27R
HURON          FAIR      55  22  27 N15G22    30.27S
SISSETON         N/A     55  19  24 NE8       30.29S
ABERDEEN       FAIR      55  14  19 E7        30.28F
MITCHELL       FAIR      57  20  23 NE18G26   30.26R
PIERRE         FAIR      56  14  19 E6        30.25R
MOBRIDGE       FAIR      60  17  18 S12       30.25R
RAPID CITY     FAIR      52  17  25 E3        30.26S
$$

  *****  SOME WEATHER IN NEARBY STATES *****

CITY           SKY/WX    TMP DP  RH WIND       PRES   REMARKS
GLASGOW MT     FAIR      58  31  35 S8G16     30.20F
GREAT FALLS MT PTSUNNY   52  28  39 S9        30.15F
CHEYENNE WY    CLOUDY    31  18  58 N16G22    30.19F WCI  20
SCOTTSBLUFF NE FAIR      43  24  47 N14       30.24F
OMAHA NE       LGT RAIN  45  37  73 NE18G26   30.10F
DES MOINES IA  LGT RAIN  44  41  89 NE18      30.09F
DAVENPORT IA   RAIN      43  40  89 NE17G23   30.11R FOG
CHICAGO IL     LGT RAIN  40  36  86 N21G31    30.16F FOG
EAU CLAIRE WI  FAIR      52  25  35 E14       30.26S
LA CROSSE WI   FAIR      50  27  40 E8        30.25R
$$

  *****  SOME NATIONAL WEATHER *****

CITY           SKY/WX    TMP DP  RH WIND       PRES   REMARKS
LA GUARDIA NY  PTSUNNY   87  59  38 W15G25    29.95R
RALEIGH NC     PTSUNNY   86  69  56 S12       30.16F HX  90
ATLANTA GA     PTSUNNY   85  68  56 S13       30.13S
NEW ORLEANS LA PTSUNNY   84  73  69 SE21G35   29.90F HX  90
OKLAHOMA CITY  RAIN      52  51  97 N8        29.67R
ALBUQUERQUE NM CLOUDY    40  35  83 W5        29.95S
SALT LAKE CITY FAIR      53  25  33 NW12      30.19F
LOS ANGELES CA FAIR      79  17  10 W12       30.01S
BOISE ID       FAIR      55  29  36 N7        30.26F
SEATTLE WA     CLOUDY    51  41  68 S6        30.24F
$$

*** WEATHER ACROSS MANITOBA...SASKATCHEWAN AND ONTARIO ***
                ***ONTARIO***

CITY           SKY/WX    TMP DP  RH WIND       PRES   REMARKS
GERALDTON      SUNNY     45  19  36 N7        30.28F
THUNDER BAY    SUNNY     46  16  29 S5        30.35R
SIOUX LOOKOUT  MOSUNNY   45  12  26 VRB2      30.34R
TORONTO        CLOUDY    57  39  51 N9        30.16R
BIG TROUT LK   SUNNY     36  19  51 S9        30.35S
PICKLE LAKE    MOSUNNY   45  14  29 VRB3      30.31F
DRYDEN         SUNNY     46   9  21 VRB3      30.33S
KENORA         MOSUNNY   50   9  18 SW8       30.34S
$$
                *** MANITOBA***

CITY           SKY/WX    TMP DP  RH WIND       PRES   REMARKS
BRANDON        PTSUNNY   61  32  33 SW16G26   30.20S
DAUPHIN        CLOUDY    57  28  33 NW8       30.17F
ISLAND LAKE    MOSUNNY   45  16  31 N5        30.32S
PILOT MOUND      N/A     61  19  20 S13         N/A
THE PAS        CLOUDY    45  25  45 SE9       30.18S
THOMPSON       MOSUNNY   39  21  48 VRB6      30.28F
WINNIPEG       MOSUNNY   59  14  17 S8G17     30.28F
LYNN LAKE      SUNNY     43  23  45 E9        30.19F
CHURCHILL      PTSUNNY   14   7  73 NW3       30.39F
GILLAM         MOSUNNY   34  16  47 N7        30.36S
$$
                ***SASKATCHEWAN***

CITY           SKY/WX    TMP DP  RH WIND       PRES   REMARKS
ESTEVAN        PTSUNNY   55  27  33 SW13G21   30.20F
KINDERSLEY     PTSUNNY   48  25  40 SW9       30.13F
LLOYDMINSTER   PTSUNNY   52  28  40 S7G20     30.08F
PRINCE ALBERT  PTSUNNY   48  30  49 VRB2      30.11F
REGINA         MOSUNNY   54  27  35 W10       30.19F
YORKTON        MOSUNNY   54  30  40 SW20G29   30.15S



USA.gov is the U.S. government's official web portal to all federal, state and local government web resources and services.